This is the latest recevied weather packets stored in our database for station/object WD4ITN. If no packets are shown the sender has not sent any weather packets the latest 10 day(s).
| Time | Temp. | Humidity | Pressure | Rain* | Wind** | Luminosity | Snow |
|---|---|---|---|---|---|---|---|
| 1787763203 | 23.89° C | 77% | 1019.4 hPa | 0 mm | - | - | - |
| 1787762921 | 23.33° C | 77% | 1019.5 hPa | 0 mm | - | - | - |
| 1787762595 | 23.33° C | 76% | 1019.5 hPa | 0 mm | - | - | - |
| 1787762294 | 22.78° C | 77% | 1019.7 hPa | 0 mm | - | - | - |
| 1787761996 | 22.78° C | 75% | 1018.8 hPa | 0 mm | - | - | - |
| 1787761711 | 22.22° C | 74% | 1018.8 hPa | 0 mm | - | - | - |
| 1787761406 | 22.78° C | 73% | 1018.8 hPa | 0 mm | - | - | - |
| 1787761107 | 22.78° C | 73% | 1018.9 hPa | 0 mm | - | - | - |
| 1787760807 | 22.78° C | 76% | 1018.9 hPa | 0 mm | - | - | - |
| 1787760505 | 22.22° C | 73% | 1018.9 hPa | 0 mm | - | - | - |
| 1787760197 | 22.22° C | 72% | 1019 hPa | 0 mm | - | - | - |
| 1787759897 | 22.78° C | 75% | 1019 hPa | 0 mm | - | - | - |
| 1787759593 | 22.78° C | 75% | 1019.1 hPa | 0 mm | - | - | - |
| 1787759300 | 22.78° C | 75% | 1019.1 hPa | 0 mm | - | - | - |
| 1787759020 | 22.22° C | 74% | 1019.1 hPa | 0 mm | - | - | - |
| 1787758722 | 22.22° C | 75% | 1019.2 hPa | 0 mm | - | - | - |
| 1787758394 | 22.22° C | 76% | 1019.3 hPa | 0 mm | - | - | - |
| 1787758094 | 22.22° C | 75% | 1019.3 hPa | 0 mm | - | - | - |
| 1787757814 | 22.22° C | 74% | 1019.3 hPa | 0 mm | - | - | - |
| 1787757504 | 22.22° C | 76% | 1019.3 hPa | 0 mm | - | - | - |
| 1787757204 | 21.67° C | 75% | 1019.3 hPa | 0 mm | - | - | - |
| 1787756910 | 21.67° C | 77% | 1019.3 hPa | 0 mm | - | - | - |
| 1787756612 | 21.67° C | 77% | 1019.2 hPa | 0 mm | - | - | - |
| 1787756301 | 21.67° C | 76% | 1019.3 hPa | 0 mm | - | - | - |
| 1787755999 | 21.67° C | 77% | 1019.3 hPa | 0 mm | - | - | - |
* Rain since midnight (hover to see other rain measurements)
** Current wind speed in m/s (hover to see current wind gust speed)